This demonstration page uses our WeatherBlox Daily Observations layout. Learn more.

Left ArrowRight Arrow

34.74481, -87.66753

Hourly Observations for May 22, 2019

Temp ( °F °C ) Dew Point ( °F °C ) Humidity (%) Winds ( mph kmh ) Pressure ( in mb ) Visibility ( mi km ) Precip ( " mm )
12:53 am 00:53 Clear 78 25.6 65 18.3 64 64 S 12 19 29.90 1012 10 16 0.00 0.00
1:53 am 01:53 Mostly Clear 77 25 66 18.9 69 69 SSW 7 11 29.92 1013 10 16 0.00 0.00
2:53 am 02:53 Mostly Clear 76 24.4 67 19.4 74 74 SSW 8 13 29.93 1013 10 16 0.00 0.00
3:53 am 03:53 Clear 74 23.3 67 19.4 79 79 SSW 10 17 29.92 1013 10 16 0.00 0.00
4:53 am 04:53 Clear 73 22.8 67 19.4 81 81 S 8 13 29.93 1014 10 16 0.00 0.00
5:53 am 05:53 Sunny 73 22.8 67 19.4 81 81 S 9 15 29.93 1014 10 16 0.00 0.00
6:53 am 06:53 Sunny 74 23.3 68 20 82 82 SW 7 11 29.96 1015 10 16 0.00 0.00
7:53 am 07:53 Partly Cloudy 76 24.4 68 20 77 77 SSW 9 15 29.99 1016 10 16 0.00 0.00
8:00 am 08:00 Mostly Cloudy 76 24.4 68 20 77 77 SSW 12 19 29.99 1016 10 16 0.00 0.00
8:18 am 08:18 Partly Cloudy 77 25 68 20 74 74 SSW 10 17 30.00 1016 10 16 0.00 0.00
8:53 am 08:53 Mostly Sunny 78 25.6 68 20 71 71 SSW 12 19 30.01 1016 10 16 0.00 0.00
9:53 am 09:53 Mostly Sunny 81 27.2 68 20 65 65 S 13 20 30.02 1017 10 16 0.00 0.00
10:53 am 10:53 Sunny 84 28.9 67 19.4 57 57 S 15 24 30.02 1017 10 16 0.00 0.00
11:53 am 11:53 Sunny 87 30.6 67 19.4 51 51 S 13 20 30.02 1017 10 16 0.00 0.00
12:01 pm 12:01 Mostly Sunny 87 30.6 66 18.9 50 50 S 14 22 30.01 1016 10 16 0.00 0.00
12:53 pm 12:53 Sunny 88 31.1 65 18.3 46 46 S 15 24 30.01 1016 10 16 0.00 0.00
1:39 pm 13:39 Mostly Sunny 89 31.7 65 18.3 45 45 SSW 12 19 30.01 1016 10 16 0.00 0.00
1:53 pm 13:53 Sunny 90 32.2 64 17.8 42 42 SSW 16 26 30.01 1016 10 16 0.00 0.00
2:53 pm 14:53 Sunny 91 32.8 64 17.8 41 41 S 13 20 30.01 1016 10 16 0.00 0.00
3:09 pm 15:09 Mostly Sunny 90 32.2 65 18.3 44 44 S 14 22 29.99 1016 10 16 0.00 0.00
3:53 pm 15:53 Sunny 90 32.2 65 18.3 44 44 S 12 19 30.01 1016 10 16 0.00 0.00
5:08 pm 17:08 Mostly Sunny 89 31.7 65 18.3 45 45 S 9 15 30.01 1016 10 16 0.00 0.00
5:53 pm 17:53 Sunny 89 31.7 63 17.2 42 42 S 13 20 30.02 1017 10 16 0.00 0.00
6:53 pm 18:53 Sunny 87 30.6 64 17.8 46 46 S 10 17 30.02 1017 10 16 0.00 0.00
7:53 pm 19:53 Clear 83 28.3 65 18.3 55 55 S 5 7 30.03 1017 10 16 0.00 0.00
8:53 pm 20:53 Clear 78 25.6 67 19.4 69 69 SE 3 6 30.05 1018 10 16 0.00 0.00
9:53 pm 21:53 Clear 76 24.4 67 19.4 74 74 SE 5 7 30.07 1018 10 16 0.00 0.00
10:53 pm 22:53 Clear 74 23.3 66 18.9 76 76 SE 3 6 30.08 1019 10 16 0.00 0.00
11:53 pm 23:53 Clear 73 22.8 66 18.9 79 79 ESE 3 6 30.08 1019 10 16 0.00 0.00

Powered by AerisWeather